User: anonymous   Login
Location: Unspecified
(0.0000°N, 0.0000°E)
Time: 12:31:20
(UTC+00:00)
Language:

LANDSAT 8 - Orbit

View from above orbital plane
View from above orbital plane
View from above satellite
View from above satellite

Ground track
Ground track

The orbit data is extracted from the following two-line orbital elements,

1 39084U 13008A   15114.19650189  .00000746  00000-0  17553-3 0  9998
2 39084 098.1815 184.7821 0001078 098.0707 262.0610 14.57124982116745
Epoch (UTC): 24 April 2015 04:42:57
Eccentricity: 0.0001078
inclination: 98.1815°
perigee height: 702 km
apogee height: 703 km
right ascension of ascending node: 184.7821°
argument of perigee: 98.0707°
revolutions per day: 14.57124982
mean anomaly at epoch: 262.0610°
orbit number at epoch: 11674

The dashed part of the orbit path shows where the satellite is in the earth's shadow,  

DLR